Location: Asis
(14.1331°N, 120.9056°E)
Time: 17:45:46
(UTC+00:00)

Sylda 5 - Pass Details

Date: 15 January 2026
Orbit: 578 x 35398 km, 7.2° (Epoch: 13 February)

Event Time Altitude Azimuth Distance (km) Brightness Sun altitude
Rises 09:46:46 0° 261° (W) 12,853 10.9 -0.7°
Reaches altitude 10° 10:02:22 10° 257° (WSW) 7,319 9.4 -4.3°
Maximum altitude 10:16:46 44° 188° (S) 1,510 4.3 -7.5°
Drops below altitude 10° 10:20:49 10° 113° (ESE) 2,144 4.4 -8.5°
Enters shadow 10:21:39 - 108° (ESE) 2,497 4.7 -8.7°
